CW5286 Weather Reports


time (UTC)temp
F
wind
direction
speed
knots
gust
knots
rain 1hr
in
rain 24hr
in
rain mn
in
humidity
%
barometer
mb
20260509211545 71 106 1.7 3.5 0.00 0.00 0.00 51 1008.1
20260509211035 71 129 1.7 3.5 0.00 0.00 0.00 49 1008.0
20260509210534 71 120 0.9 3.5 0.00 0.00 0.00 50 1007.9
20260509210043 71 98 0.9 3.5 0.00 0.00 0.00 50 1007.9
20260509205535 71 268 0.0 6.1 0.00 0.00 0.00 48 1007.9
20260509205037 71 0 1.7 6.1 0.00 0.00 0.00 47 1007.9
20260509204540 72 127 1.7 6.1 0.00 0.00 0.00 46 1007.8
20260509204036 72 143 1.7 6.1 0.00 0.00 0.00 46 1007.8
20260509203539 72 209 0.0 6.1 0.00 0.00 0.00 48 1007.9
20260509203038 72 298 2.6 6.1 0.00 0.00 0.00 47 1007.8
20260509202532 72 328 0.0 6.1 0.00 0.00 0.00 47 1007.7
20260509202039 72 136 0.0 6.1 0.00 0.00 0.00 48 1007.7
20260509201554 72 0 1.7 6.1 0.00 0.00 0.00 48 1007.8
20260509201035 71 0 0.0 5.2 0.00 0.00 0.00 47 1007.8
20260509200535 71 223 1.7 5.2 0.00 0.00 0.00 47 1007.9
20260509200057 70 0 0.0 4.3 0.00 0.00 0.00 47 1007.9
20260509195534 70 0 0.9 3.5 0.00 0.00 0.00 50 1008.1
20260509195035 70 0 0.0 3.5 0.00 0.00 0.00 47 1008.0
20260509194545 70 0 0.0 6.1 0.00 0.00 0.00 47 1008.3
20260509194035 70 221 1.7 7.0 0.00 0.00 0.00 47 1008.2
20260509193535 70 161 1.7 7.0 0.00 0.00 0.00 51 1008.4
20260509193100 70 115 0.9 6.1 0.00 0.00 0.00 49 1008.3
20260509192535 71 248 2.6 8.7 0.00 0.00 0.00 47 1008.4
20260509192032 70 107 1.7 8.7 0.00 0.00 0.00 50 1008.5
20260509191545 70 84 0.9 3.5 0.00 0.00 0.00 50 1008.6
20260509191035 69 332 1.7 8.7 0.00 0.00 0.00 50 1008.5
20260509190537 69 249 2.6 8.7 0.00 0.00 0.00 48 1008.6
20260509190046 70 232 3.5 7.8 0.00 0.00 0.00 51 1008.7
20260509185533 69 78 2.6 7.0 0.00 0.00 0.00 51 1008.6
20260509185035 69 165 1.7 7.8 0.00 0.00 0.00 51 1008.7
20260509184558 69 120 4.3 7.8 0.00 0.00 0.00 53 1008.8
20260509184034 69 304 1.7 7.0 0.00 0.00 0.00 54 1008.8
20260509183532 68 0 1.7 7.0 0.00 0.00 0.00 55 1008.9
20260509183046 68 82 2.6 7.8 0.00 0.00 0.00 51 1009.0
20260509182534 68 206 2.6 8.7 0.00 0.00 0.00 49 1009.0
20260509182032 67 27 3.5 8.7 0.00 0.00 0.00 54 1009.1
20260509181547 67 63 1.7 7.8 0.00 0.00 0.00 55 1009.2
20260509181033 67 127 3.5 7.8 0.00 0.00 0.00 52 1009.4
20260509180535 68 58 2.6 7.8 0.00 0.00 0.00 54 1009.4
20260509180043 67 85 2.6 7.8 0.00 0.00 0.00 55 1009.6
20260509175534 67 60 2.6 7.8 0.00 0.00 0.00 55 1009.7
20260509175034 67 55 3.5 7.8 0.00 0.00 0.00 52 1009.9
20260509174538 67 24 2.6 8.7 0.00 0.00 0.00 53 1009.7
20260509174034 66 343 3.5 9.6 0.00 0.00 0.00 53 1009.5
20260509173534 66 43 2.6 9.6 0.00 0.00 0.00 55 1009.6
20260509173044 66 46 5.2 9.6 0.00 0.00 0.00 52 1009.7
20260509172535 67 55 1.7 7.0 0.00 0.00 0.00 52 1009.9
20260509172035 66 36 2.6 7.0 0.00 0.00 0.00 51 1009.6
20260509171603 67 32 2.6 6.1 0.00 0.00 0.00 52 1009.6
20260509171034 66 74 1.7 6.1 0.00 0.00 0.00 52 1009.7
20260509170535 66 65 1.7 6.1 0.00 0.00 0.00 52 1009.9
20260509170044 67 42 2.6 6.1 0.00 0.00 0.00 51 1009.9
20260509165532 67 44 1.7 4.3 0.00 0.00 0.00 49 1010.1
20260509165034 67 0 1.7 4.3 0.00 0.00 0.00 47 1010.0
20260509164543 67 342 1.7 4.3 0.00 0.00 0.00 48 1010.1
20260509164034 67 96 0.9 4.3 0.00 0.00 0.00 48 1010.0
20260509163534 67 27 1.7 3.5 0.00 0.00 0.00 46 1010.0
20260509163041 67 136 0.9 2.6 0.00 0.00 0.00 45 1010.0
20260509162535 67 75 0.0 2.6 0.00 0.00 0.00 47 1009.9
20260509162035 67 57 0.9 2.6 0.00 0.00 0.00 45 1009.9
20260509161538 67 0 0.9 6.1 0.00 0.00 0.00 46 1009.9
20260509161034 67 252 1.7 6.1 0.00 0.00 0.00 48 1010.0
20260509160532 67 265 0.0 5.2 0.00 0.00 0.00 47 1010.0
20260509160048 67 179 0.9 5.2 0.00 0.00 0.00 47 1009.9
20260509155533 67 0 0.0 2.6 0.00 0.00 0.00 46 1009.8
20260509155033 67 291 0.9 2.6 0.00 0.00 0.00 48 1009.6
20260509154549 67 277 0.9 2.6 0.00 0.00 0.00 47 1009.6
20260509154034 67 0 0.0 2.6 0.00 0.00 0.00 48 1009.5
20260509153626 66 0 0.0 2.6 0.00 0.00 0.00 48 1009.7
20260509153049 66 0 0.0 5.2 0.00 0.00 0.00 52 1009.8
20260509152535 66 225 0.0 5.2 0.00 0.00 0.00 54 1009.9
20260509152035 65 225 0.9 5.2 0.00 0.00 0.00 51 1010.0
20260509151627 65 61 0.9 6.1 0.00 0.00 0.00 52 1010.0
20260509151033 65 173 2.6 6.1 0.00 0.00 0.00 54 1010.1
20260509150534 65 165 1.7 6.1 0.00 0.00 0.00 55 1010.2
20260509150100 64 178 0.9 6.1 0.00 0.00 0.00 54 1010.1
20260509145532 64 97 1.7 6.1 0.00 0.00 0.00 55 1010.3
20260509145033 64 155 0.9 6.1 0.00 0.00 0.00 53 1010.2
20260509144651 64 298 0.9 4.3 0.00 0.00 0.00 54 1010.2
20260509144040 64 231 0.9 4.3 0.00 0.00 0.00 55 1010.2
20260509143534 63 0 0.0 4.3 0.00 0.00 0.00 56 1010.1
20260509143051 63 208 0.0 5.2 0.00 0.00 0.00 55 1010.1
20260509142536 63 259 0.9 6.1 0.00 0.00 0.00 55 1010.4
20260509142032 63 267 1.7 7.8 0.00 0.00 0.00 54 1010.4
20260509141547 63 235 0.9 7.8 0.00 0.00 0.00 55 1010.4
20260509141036 62 293 0.9 7.8 0.00 0.00 0.00 56 1010.6
20260509140532 62 239 2.6 7.8 0.00 0.00 0.00 56 1010.6
20260509140045 62 186 2.6 6.1 0.00 0.00 0.00 56 1010.6
20260509135538 61 209 2.6 6.1 0.00 0.00 0.00 56 1010.8
20260509135035 61 231 0.9 5.2 0.00 0.00 0.00 58 1010.8
20260509134544 60 230 2.6 5.2 0.00 0.00 0.00 58 1010.9
20260509134033 60 216 1.7 5.2 0.00 0.00 0.00 58 1010.9
20260509133538 60 279 0.9 4.3 0.00 0.00 0.00 58 1010.9
20260509133044 60 237 0.9 4.3 0.00 0.00 0.00 59 1010.8
20260509132533 60 237 1.7 4.3 0.00 0.00 0.00 56 1010.8
20260509132036 60 256 2.6 6.1 0.00 0.00 0.00 56 1010.8
20260509131543 59 252 1.7 6.1 0.00 0.00 0.00 56 1010.7
20260509131035 59 243 0.9 4.3 0.00 0.00 0.00 57 1010.5
20260509130535 59 182 0.9 4.3 0.00 0.00 0.00 57 1010.5
20260509130042 59 220 0.9 4.3 0.00 0.00 0.00 57 1010.7
20260509125531 59 265 1.7 4.3 0.00 0.00 0.00 57 1010.6
20260509125034 59 241 1.7 5.2 0.00 0.00 0.00 57 1010.6
20260509124604 58 213 1.7 6.1 0.00 0.00 0.00 56 1010.8
20260509124034 58 228 1.7 7.0 0.00 0.00 0.00 56 1010.7
20260509123532 58 240 2.6 7.0 0.00 0.00 0.00 56 1010.7
20260509123045 58 218 2.6 6.1 0.00 0.00 0.00 56 1010.7
20260509122532 58 235 1.7 5.2 0.00 0.00 0.00 56 1010.8
20260509122033 58 286 1.7 3.5 0.00 0.00 0.00 56 1010.7
20260509121547 58 244 0.9 6.1 0.00 0.00 0.00 56 1010.7
20260509121038 58 0 1.7 7.0 0.00 0.00 0.00 55 1010.7
20260509120534 58 263 2.6 7.8 0.00 0.00 0.00 55 1010.7
20260509120043 58 261 3.5 7.8 0.00 0.00 0.00 55 1010.8
20260509115531 58 268 3.5 7.0 0.00 0.00 0.00 55 1010.8
20260509115034 58 265 1.7 7.0 0.00 0.00 0.00 55 1010.7
20260509114543 58 290 1.7 7.0 0.00 0.00 0.00 55 1010.6
20260509114034 58 281 2.6 7.0 0.00 0.00 0.00 55 1010.6
20260509113541 58 252 2.6 7.0 0.00 0.00 0.00 55 1010.7
20260509113044 58 248 1.7 7.0 0.00 0.00 0.00 55 1010.6
20260509112534 57 242 2.6 7.0 0.00 0.00 0.00 55 1010.6
20260509112031 57 286 1.7 4.3 0.00 0.00 0.00 55 1010.6
20260509111543 57 224 0.9 5.2 0.00 0.00 0.00 55 1010.6
20260509111036 57 268 1.7 5.2 0.00 0.00 0.00 55 1010.6
20260509110534 57 244 1.7 6.1 0.00 0.00 0.00 55 1010.6
20260509110047 57 0 1.7 6.1 0.00 0.00 0.00 55 1010.6
20260509105533 57 0 2.6 7.8 0.00 0.00 0.00 55 1010.5
20260509105034 57 295 1.7 7.8 0.00 0.00 0.00 55 1010.6
20260509104540 57 302 1.7 7.8 0.00 0.00 0.00 55 1010.6
20260509104033 57 304 1.7 6.1 0.00 0.00 0.00 55 1010.6
20260509103538 57 281 1.7 5.2 0.00 0.00 0.00 55 1010.5
20260509103048 57 265 0.9 2.6 0.00 0.00 0.00 56 1010.6
20260509102533 57 253 0.9 3.5 0.00 0.00 0.00 56 1010.6
20260509102032 57 0 0.0 4.3 0.00 0.00 0.00 56 1010.6
20260509101546 57 236 0.9 4.3 0.00 0.00 0.00 56 1010.5
20260509101035 57 310 0.9 6.1 0.00 0.00 0.00 56 1010.6
20260509100533 57 284 2.6 6.1 0.00 0.00 0.00 55 1010.4
20260509100052 57 247 0.0 6.1 0.00 0.00 0.00 56 1010.3
20260509095534 57 300 1.7 6.1 0.00 0.00 0.00 55 1010.3
20260509095039 57 279 1.7 6.1 0.00 0.00 0.00 56 1010.3
20260509094550 57 279 1.7 5.2 0.00 0.00 0.00 55 1010.5
20260509094034 57 278 2.6 6.1 0.00 0.00 0.00 55 1010.4
20260509093535 57 271 1.7 6.1 0.00 0.00 0.00 56 1010.6
20260509093045 56 276 1.7 6.1 0.00 0.00 0.00 56 1010.6
20260509092535 56 0 0.9 6.1 0.00 0.00 0.00 56 1010.6
20260509092036 57 265 0.9 5.2 0.00 0.00 0.00 56 1010.5
20260509091542 57 222 1.7 5.2 0.00 0.00 0.00 56 1010.5
20260509091037 57 244 0.9 7.0 0.00 0.00 0.00 56 1010.5
20260509090539 57 303 0.0 7.0 0.00 0.00 0.00 56 1010.5
20260509090049 57 246 1.7 7.0 0.00 0.00 0.00 55 1010.3
20260509085534 56 275 0.9 6.1 0.00 0.00 0.00 56 1010.4
20260509085036 56 238 0.9 3.5 0.00 0.00 0.00 56 1010.5
20260509084553 56 290 0.9 3.5 0.00 0.00 0.00 56 1010.7
20260509084036 56 294 0.0 5.2 0.00 0.00 0.00 57 1010.6
20260509083539 56 252 0.9 5.2 0.00 0.00 0.00 57 1010.7
20260509083047 56 0 0.9 5.2 0.00 0.00 0.00 57 1010.6
20260509082535 56 285 0.0 3.5 0.00 0.00 0.00 58 1010.8
20260509082035 56 301 0.9 6.1 0.00 0.00 0.00 57 1010.8
20260509081548 56 0 1.7 6.1 0.00 0.00 0.00 58 1010.8
20260509081038 56 348 1.7 2.6 0.00 0.00 0.00 58 1010.7
20260509080538 56 0 0.9 3.5 0.00 0.00 0.00 59 1010.8
20260509080044 56 227 0.9 3.5 0.00 0.00 0.00 59 1010.9
20260509075536 56 198 0.0 3.5 0.00 0.00 0.00 59 1010.9
20260509075037 56 263 1.7 3.5 0.00 0.00 0.00 59 1010.9
20260509074559 56 221 0.9 3.5 0.00 0.00 0.00 59 1011.0
20260509074034 56 261 0.0 3.5 0.00 0.00 0.00 60 1011.0
20260509073536 56 294 0.0 4.3 0.00 0.00 0.00 59 1011.0
20260509073055 56 248 0.9 4.3 0.00 0.00 0.00 59 1011.1
20260509072539 56 275 0.9 4.3 0.00 0.00 0.00 59 1011.2
20260509072035 56 0 0.0 1.7 0.00 0.00 0.00 59 1011.1
20260509071557 56 271 0.0 1.7 0.00 0.00 0.00 58 1011.1
20260509071039 56 272 0.0 1.7 0.00 0.00 0.00 58 1011.2
20260509070534 56 0 0.0 3.5 0.00 0.00 0.00 57 1011.2
20260509070048 56 259 0.9 3.5 0.00 0.00 0.00 58 1011.2
20260509065536 56 290 1.7 3.5 0.00 0.00 0.00 58 1011.3
20260509065031 56 0 1.7 4.3 0.00 0.00 0.00 59 1011.3
20260509064544 56 288 0.9 4.3 0.00 0.00 0.00 59 1011.3
20260509064036 56 254 0.9 3.5 0.00 0.00 0.00 59 1011.4
20260509063535 55 0 0.9 6.1 0.00 0.00 0.00 60 1011.4
20260509063044 55 278 0.0 6.1 0.00 0.00 0.00 60 1011.5
20260509062535 55 283 1.7 5.2 0.00 0.00 0.00 60 1011.6
20260509062034 55 294 2.6 7.0 0.00 0.00 0.00 61 1011.6
20260509061549 54 325 2.6 7.0 0.00 0.00 0.00 62 1011.6
20260509061032 54 317 1.7 4.3 0.00 0.00 0.00 63 1011.6
20260509060535 54 311 1.7 3.5 0.00 0.00 0.00 63 1011.6
20260509060048 54 311 0.9 3.5 0.00 0.00 0.00 63 1011.7
20260509055533 54 271 0.9 3.5 0.00 0.00 0.00 62 1011.8
20260509055037 54 285 0.0 1.7 0.00 0.00 0.00 63 1011.7
20260509054548 54 0 0.0 2.6 0.00 0.00 0.00 63 1011.7
20260509054034 54 0 0.0 2.6 0.00 0.00 0.00 64 1011.8
20260509053532 54 294 0.0 1.7 0.00 0.00 0.00 63 1011.8
20260509053045 54 294 0.0 1.7 0.00 0.00 0.00 63 1011.8
20260509052533 55 0 0.0 1.7 0.00 0.00 0.00 61 1011.8
20260509052031 56 0 0.0 1.7 0.00 0.00 0.00 60 1011.7
20260509051544 57 294 0.0 2.6 0.00 0.00 0.00 58 1011.8
20260509051031 57 0 0.9 2.6 0.00 0.00 0.00 58 1011.8
20260509050535 57 273 0.9 2.6 0.00 0.00 0.00 58 1011.8
20260509050055 57 290 0.9 2.6 0.00 0.00 0.00 58 1011.8
20260509045535 58 268 0.0 2.6 0.00 0.00 0.00 57 1011.8
20260509045035 58 0 0.0 2.6 0.00 0.00 0.00 57 1011.7
20260509044548 58 0 0.0 7.0 0.00 0.00 0.00 56 1011.8
20260509044031 58 279 0.9 7.0 0.00 0.00 0.00 56 1011.8
20260509043531 58 277 1.7 7.0 0.00 0.00 0.00 57 1011.7
20260509043038 58 201 2.6 4.3 0.00 0.00 0.00 56 1011.7
20260509042533 58 204 1.7 3.5 0.00 0.00 0.00 57 1011.7
20260509042035 58 0 1.7 3.5 0.00 0.00 0.00 57 1011.8
20260509041547 58 207 0.9 3.5 0.00 0.00 0.00 58 1011.7
20260509041032 58 216 0.9 4.3 0.00 0.00 0.00 58 1011.7
20260509040536 58 246 1.7 5.2 0.00 0.00 0.00 58 1011.7
20260509040053 58 235 0.9 5.2 0.00 0.00 0.00 57 1011.6
20260509035531 58 243 0.0 3.5 0.00 0.00 0.00 58 1011.7
20260509035032 58 232 0.9 3.5 0.00 0.00 0.00 57 1011.6
20260509034557 58 242 1.7 4.3 0.00 0.00 0.00 57 1011.6
20260509034031 57 215 1.7 4.3 0.00 0.00 0.00 59 1011.8
20260509033533 56 249 1.7 3.5 0.00 0.00 0.00 61 1011.8
20260509033050 56 0 0.9 2.6 0.00 0.00 0.00 64 1011.8
20260509032534 56 259 0.9 2.6 0.00 0.00 0.00 64 1011.8
20260509032035 55 288 0.9 2.6 0.00 0.00 0.00 63 1011.9
20260509031552 55 257 0.9 2.6 0.00 0.00 0.00 63 1011.8
20260509031037 55 0 0.9 2.6 0.00 0.00 0.00 63 1011.8
20260509030534 56 299 0.9 2.6 0.00 0.00 0.00 62 1011.9
20260509030048 57 299 0.9 4.3 0.00 0.00 0.00 59 1011.8
20260509025531 58 277 1.7 4.3 0.00 0.00 0.00 55 1011.8
20260509025031 59 284 1.7 7.0 0.00 0.00 0.00 54 1011.9
20260509024543 59 246 1.7 9.6 0.00 0.00 0.00 54 1011.8
20260509024032 59 231 3.5 9.6 0.00 0.00 0.00 54 1011.9
20260509023532 58 255 0.9 3.5 0.00 0.00 0.00 54 1012.0
20260509023055 59 255 0.9 4.3 0.00 0.00 0.00 54 1011.9
20260509022531 59 296 0.9 6.1 0.00 0.00 0.00 54 1011.9
20260509022034 59 0 0.9 6.1 0.00 0.00 0.00 54 1012.0
20260509021544 58 286 0.9 3.5 0.00 0.00 0.00 54 1011.9
20260509021035 58 288 1.7 6.1 0.00 0.00 0.00 55 1011.9
20260509020532 58 271 1.7 6.1 0.00 0.00 0.00 54 1011.8
20260509020055 58 271 0.9 3.5 0.00 0.00 0.00 55 1011.7
20260509015531 58 300 0.9 5.2 0.00 0.00 0.00 55 1011.8
20260509015032 57 298 0.9 5.2 0.00 0.00 0.00 56 1011.8
20260509014545 57 0 0.9 5.2 0.00 0.00 0.00 59 1011.7
20260509014035 56 277 1.7 4.3 0.00 0.00 0.00 59 1011.7
20260509013532 56 292 1.7 4.3 0.00 0.00 0.00 61 1011.7
20260509013106 56 303 1.7 4.3 0.00 0.00 0.00 61 1011.7
20260509012535 54 277 2.6 4.3 0.00 0.00 0.00 64 1011.8
20260509012031 54 297 0.9 3.5 0.00 0.00 0.00 66 1011.7
20260509011543 53 298 1.7 3.5 0.00 0.00 0.00 65 1011.6
20260509011031 54 322 1.7 2.6 0.00 0.00 0.00 65 1011.6
20260509010532 55 345 0.0 1.7 0.00 0.00 0.00 64 1011.6
20260509010050 55 345 0.0 2.6 0.00 0.00 0.00 63 1011.5
20260509005533 56 0 0.9 2.6 0.00 0.00 0.00 62 1011.6
20260509005033 57 345 0.0 2.6 0.00 0.00 0.00 60 1011.6
20260509004543 57 345 0.9 2.6 0.00 0.00 0.00 59 1011.5
20260509004036 58 345 0.9 2.6 0.00 0.00 0.00 57 1011.4
20260509003533 59 345 0.0 2.6 0.00 0.00 0.00 56 1011.4
20260509003040 59 0 0.0 1.7 0.00 0.00 0.00 55 1011.3
20260509002536 60 0 0.0 1.7 0.00 0.00 0.00 54 1011.4
20260509002035 61 0 0.0 1.7 0.00 0.00 0.00 53 1011.4
20260509001550 62 317 0.0 2.6 0.00 0.00 0.00 50 1011.2
20260509001035 63 317 0.9 2.6 0.00 0.00 0.00 46 1011.1
20260509000535 64 0 0.0 1.7 0.00 0.00 0.00 44 1011.1
20260509000047 65 0 0.0 1.7 0.00 0.00 0.00 42 1010.9
20260508235535 66 157 0.0 3.5 0.00 0.00 0.00 41 1010.8
20260508235035 67 0 0.0 4.3 0.00 0.00 0.00 40 1010.7
20260508234543 67 163 1.7 5.2 0.00 0.00 0.00 38 1010.8
20260508234037 67 164 1.7 6.1 0.00 0.00 0.00 38 1010.8
20260508233537 68 159 2.6 9.6 0.00 0.00 0.00 37 1010.7
20260508233043 68 184 3.5 9.6 0.00 0.00 0.00 37 1010.7
20260508232535 68 148 4.3 9.6 0.00 0.00 0.00 36 1010.5
20260508232035 68 157 1.7 8.7 0.00 0.00 0.00 38 1010.6
20260508231551 68 171 3.5 8.7 0.00 0.00 0.00 36 1010.5
20260508231036 68 177 1.7 5.2 0.00 0.00 0.00 36 1010.6
20260508230536 68 151 2.6 5.2 0.00 0.00 0.00 36 1010.6
20260508230055 68 162 1.7 4.3 0.00 0.00 0.00 36 1010.6
20260508225536 68 167 0.9 3.5 0.00 0.00 0.00 38 1010.6
20260508225037 68 193 0.9 7.8 0.00 0.00 0.00 36 1010.6
20260508224559 69 181 1.7 7.8 0.00 0.00 0.00 37 1010.6
20260508224035 69 184 2.6 7.8 0.00 0.00 0.00 34 1010.5
20260508223538 69 140 1.7 5.2 0.00 0.00 0.00 33 1010.4
20260508223045 70 161 3.5 7.0 0.00 0.00 0.00 34 1010.6
20260508222533 70 164 2.6 7.0 0.00 0.00 0.00 33 1010.5
20260508222037 69 179 2.6 5.2 0.00 0.00 0.00 34 1010.6
20260508221558 69 0 0.9 5.2 0.00 0.00 0.00 35 1010.4
20260508221036 70 196 1.7 5.2 0.00 0.00 0.00 32 1010.4
20260508220532 70 198 1.7 5.2 0.00 0.00 0.00 34 1010.3
20260508220050 70 215 1.7 7.8 0.00 0.00 0.00 33 1010.3
20260508215536 70 184 3.5 8.7 0.00 0.00 0.00 32 1010.4
20260508215036 71 219 4.3 8.7 0.00 0.00 0.00 32 1010.4
20260508214547 71 190 2.6 10.4 0.00 0.00 0.00 32 1010.5
20260508214040 70 259 2.6 10.4 0.00 0.00 0.00 32 1010.3
20260508213537 70 215 1.7 7.8 0.00 0.00 0.00 33 1010.4
20260508213101 70 238 3.5 9.6 0.00 0.00 0.00 33 1010.6
20260508212536 70 222 2.6 9.6 0.00 0.00 0.00 33 1010.5
20260508212036 71 231 4.3 10.4 0.00 0.00 0.00 33 1010.6